Weather History for Dyersburg, TN

Change the Weather History Date:

Monday, November 8, 2010

  Actual Average Record
Temperature  
Mean Temperature 52 °F -  
Max Temperature 71 °F 58 °F 82 °F (2005)
Min Temperature 33 °F 41 °F 30 °F (2012)
Degree Days  
Heating Degree Days 13    
Growing Degree Days 2 (Base 50)    
Moisture  
Dew Point 28 °F    
Average Humidity 44    
Maximum Humidity 65    
Minimum Humidity 22    
Precipitation  
Precipitation 0.00 in - - ()
Sea Level Pressure  
Sea Level Pressure 30.14 in    
Wind  
Wind Speed 3 mph (SSW)    
Max Wind Speed 13 mph    
Max Gust Speed 18 mph    
Visibility 10 miles    
Events      
Averages and records for this station are not official NWS values.
T = Trace of Precipitation, MM = Missing Value Source: NWS Daily Summary

Daily Weather History Graph

Daily Weather History Graph

Search for Another Location

Airport:

Trip Planner

Search our weather history database for the weather conditions in past years. The results will help you decide how hot, cold, wet, or windy it might be!

Date:

Astronomy

Nov. 08, 2010 Rise Set
Actual Time 6:27 AM CST 4:55 PM CST
Civil Twilight 6:00 AM CST 5:22 PM CST
Nautical Twilight 5:29 AM CST 5:52 PM CST
Astronomical Twilight 4:59 AM CST 6:22 PM CST
Moon 9:08 AM CST (11/8) 6:57 PM CST (11/8)
Length of Visible Light 11h 22m
Length of Day
10h 28m
Waxing Crescent, 8% of the Moon is Illuminated
Nov 8
Waxing Crescent
Nov 13
First Quarter
Nov 21
Full
Nov 28
Last Quarter
Dec 5
New

Hourly Weather History & Observations

Time (CST) Temp. Windchill Dew Point Humidity Pressure Visibility Wind Dir Wind Speed Gust Speed Precip Events Conditions
12:15 AM 41.0 °F 39.0 °F 24.8 °F 53% 30.22 in 10.0 mi South 3.5 mph - N/A   Clear
12:35 AM 37.4 °F - 23.0 °F 56% 30.22 in 10.0 mi Calm Calm - N/A   Clear
12:55 AM 35.6 °F - 24.8 °F 65% 30.21 in 10.0 mi Calm Calm - N/A   Clear
1:15 AM 35.6 °F - 23.0 °F 60% 30.21 in 10.0 mi Calm Calm - N/A   Clear
1:35 AM 35.6 °F - 24.8 °F 65% 30.21 in 10.0 mi Calm Calm - N/A   Clear
1:55 AM 35.6 °F - 23.0 °F 60% 30.20 in 10.0 mi Calm Calm - N/A   Clear
2:15 AM 33.8 °F - 23.0 °F 65% 30.20 in 9.0 mi Calm Calm - N/A   Clear
2:35 AM 35.6 °F - 23.0 °F 60% 30.20 in 10.0 mi Calm Calm - N/A   Clear
2:55 AM 35.6 °F - 24.8 °F 65% 30.20 in 10.0 mi Calm Calm - N/A   Clear
3:15 AM 35.6 °F - 24.8 °F 65% 30.20 in 10.0 mi Calm Calm - N/A   Clear
3:35 AM 33.8 °F - 23.0 °F 65% 30.20 in 10.0 mi Calm Calm - N/A   Clear
3:55 AM 33.8 °F - 23.0 °F 65% 30.20 in 10.0 mi Calm Calm - N/A   Clear
4:15 AM 33.8 °F 30.8 °F 23.0 °F 65% 30.20 in 10.0 mi SSE 3.5 mph - N/A   Clear
4:35 AM 33.8 °F - 23.0 °F 65% 30.19 in 10.0 mi Calm Calm - N/A   Clear
4:55 AM 33.8 °F - 21.2 °F 60% 30.20 in 10.0 mi Calm Calm - N/A   Clear
5:15 AM 33.8 °F - 21.2 °F 60% 30.20 in 10.0 mi Calm Calm - N/A   Clear
5:35 AM 33.8 °F 30.8 °F 23.0 °F 65% 30.20 in 10.0 mi SSE 3.5 mph - N/A   Clear
5:55 AM 33.8 °F - 23.0 °F 65% 30.20 in 10.0 mi Calm Calm - N/A   Clear
6:15 AM 35.6 °F 32.8 °F 24.8 °F 65% 30.19 in 10.0 mi South 3.5 mph - N/A   Clear
6:35 AM 37.4 °F - 24.8 °F 60% 30.19 in 10.0 mi Calm Calm - N/A   Clear
6:55 AM 35.6 °F - 24.8 °F 65% 30.20 in 10.0 mi Calm Calm - N/A   Clear
7:15 AM 39.2 °F 37.0 °F 26.6 °F 61% 30.20 in 10.0 mi South 3.5 mph - N/A   Clear
7:35 AM 42.8 °F 40.1 °F 28.4 °F 57% 30.20 in 10.0 mi South 4.6 mph - N/A   Clear
7:55 AM 44.6 °F 42.2 °F 28.4 °F 53% 30.20 in 10.0 mi South 4.6 mph - N/A   Clear
8:15 AM 48.2 °F - 30.2 °F 50% 30.20 in 10.0 mi South 4.6 mph - N/A   Clear
8:35 AM 50.0 °F - 30.2 °F 47% 30.19 in 10.0 mi South 4.6 mph - N/A   Clear
8:55 AM 51.8 °F - 32.0 °F 47% 30.18 in 10.0 mi South 4.6 mph - N/A   Clear
9:15 AM 57.2 °F - 33.8 °F 41% 30.18 in 10.0 mi SW 6.9 mph - N/A   Clear
9:35 AM 59.0 °F - 32.0 °F 36% 30.18 in 10.0 mi WSW 12.7 mph 18.4 mph N/A   Clear
9:55 AM 60.8 °F - 32.0 °F 34% 30.18 in 10.0 mi WSW 9.2 mph - N/A   Clear
10:15 AM 62.6 °F - 32.0 °F 32% 30.17 in 10.0 mi West 10.4 mph - N/A   Clear
10:35 AM 64.4 °F - 32.0 °F 30% 30.17 in 10.0 mi WSW 11.5 mph - N/A   Clear
11:15 AM 66.2 °F - 32.0 °F 28% 30.16 in 10.0 mi SW 12.7 mph - N/A   Clear
11:35 AM 68.0 °F - 32.0 °F 26% 30.14 in 10.0 mi WSW 12.7 mph - N/A   Clear
11:55 AM 69.8 °F - 32.0 °F 25% 30.13 in 10.0 mi WSW 11.5 mph - N/A   Clear
12:35 PM 71.6 °F - 32.0 °F 23% 30.11 in 10.0 mi WSW 12.7 mph - N/A   Clear
12:55 PM 71.6 °F - 30.2 °F 22% 30.10 in 10.0 mi West 11.5 mph - N/A   Clear
1:15 PM 71.6 °F - 30.2 °F 22% 30.09 in 10.0 mi WSW 6.9 mph - N/A   Clear
1:35 PM 71.6 °F - 30.2 °F 22% 30.08 in 10.0 mi SW 5.8 mph - N/A   Clear
2:15 PM 71.6 °F - 30.2 °F 22% 30.07 in 10.0 mi WSW 9.2 mph - N/A   Clear
2:35 PM 71.6 °F - 30.2 °F 22% 30.06 in 10.0 mi South 8.1 mph - N/A   Clear
2:55 PM 71.6 °F - 30.2 °F 22% 30.06 in 10.0 mi WSW 12.7 mph - N/A   Clear
3:15 PM 71.6 °F - 30.2 °F 22% 30.05 in 10.0 mi WSW 8.1 mph - N/A   Clear
3:35 PM 71.6 °F - 30.2 °F 22% 30.05 in 10.0 mi SW 8.1 mph - N/A   Clear
3:55 PM 69.8 °F - 30.2 °F 23% 30.04 in 10.0 mi SSW 5.8 mph - N/A   Clear
4:15 PM 69.8 °F - 32.0 °F 25% 30.04 in 10.0 mi SSW 5.8 mph - N/A   Clear
4:35 PM 66.2 °F - 32.0 °F 28% 30.04 in 10.0 mi South 4.6 mph - N/A   Clear
4:55 PM 66.2 °F - 32.0 °F 28% 30.04 in 10.0 mi South 5.8 mph - N/A   Clear
5:15 PM 64.4 °F - 30.2 °F 28% 30.04 in 10.0 mi South 4.6 mph - N/A   Clear
5:35 PM 62.6 °F - 30.2 °F 30% 30.04 in 10.0 mi South 3.5 mph - N/A   Clear
5:55 PM 60.8 °F - 30.2 °F 31% 30.04 in 10.0 mi SSW 3.5 mph - N/A   Clear
6:15 PM 59.0 °F - 30.2 °F 34% 30.05 in 10.0 mi South 3.5 mph - N/A   Clear
6:35 PM 59.0 °F - 30.2 °F 34% 30.04 in 10.0 mi SSW 3.5 mph - N/A   Clear
6:55 PM 59.0 °F - 30.2 °F 34% 30.04 in 10.0 mi SSW 3.5 mph - N/A   Clear
7:15 PM 57.2 °F - 30.2 °F 36% 30.04 in 10.0 mi South 3.5 mph - N/A   Clear
7:35 PM 53.6 °F - 30.2 °F 41% 30.04 in 10.0 mi SSW 3.5 mph - N/A   Clear
7:55 PM 55.4 °F - 32.0 °F 41% 30.04 in 10.0 mi SSW 3.5 mph - N/A   Clear
8:15 PM 53.6 °F - 30.2 °F 41% 30.04 in 10.0 mi SSW 3.5 mph - N/A   Clear
8:35 PM 53.6 °F - 32.0 °F 44% 30.04 in 10.0 mi Calm Calm - N/A   Clear
8:55 PM 51.8 °F - 30.2 °F 44% 30.05 in 10.0 mi Calm Calm - N/A   Clear
9:15 PM 51.8 °F - 30.2 °F 44% 30.05 in 10.0 mi SSW 3.5 mph - N/A   Clear
9:35 PM 53.6 °F - 33.8 °F 47% 30.04 in 10.0 mi SSW 5.8 mph - N/A   Clear
9:55 PM 55.4 °F - 33.8 °F 44% 30.04 in 10.0 mi SSW 4.6 mph - N/A   Clear
10:15 PM 53.6 °F - 33.8 °F 47% 30.04 in 10.0 mi South 3.5 mph - N/A   Clear
10:35 PM 53.6 °F - 33.8 °F 47% 30.04 in 10.0 mi SSW 3.5 mph - N/A   Clear
10:55 PM 53.6 °F - 33.8 °F 47% 30.04 in 10.0 mi Calm Calm - N/A   Clear
11:15 PM 53.6 °F - 33.8 °F 47% 30.03 in 10.0 mi South 3.5 mph - N/A   Clear
11:35 PM 53.6 °F - 33.8 °F 47% 30.03 in 10.0 mi SSW 3.5 mph - N/A   Clear
11:55 PM 53.6 °F - 33.8 °F 47% 30.03 in 10.0 mi South 3.5 mph - N/A   Clear